Time,TemperatureF,DewpointF,PressureIn,WindDirection,WindDirectionDegrees,WindSpeedMPH,WindSpeedGustMPH,Humidity,HourlyPrecipIn,Conditions,Clouds,dailyrainin,SoftwareType,DateUTC
2013-01-20 00:00:00,26.3,14.7,30.15,West,271,27.0,30.0,61,0.00,,---,0.00,VWS V14.01,2013-01-20 06:00:00,
2013-01-20 00:04:00,29.9,18.1,30.12,WNW,282,28.0,33.0,61,0.00,,---,0.00,VWS V14.01,2013-01-20 06:04:00,
2013-01-20 00:09:00,29.5,17.7,30.12,WNW,283,29.0,34.0,61,0.00,,---,0.00,VWS V14.01,2013-01-20 06:09:00,
2013-01-20 00:14:00,29.1,17.3,30.11,West,268,22.0,34.0,61,0.00,,---,0.00,VWS V14.01,2013-01-20 06:14:00,
2013-01-20 00:19:00,28.8,17.1,30.12,WNW,290,27.0,34.0,61,0.00,,---,0.00,VWS V14.01,2013-01-20 06:19:00,
2013-01-20 00:24:00,28.5,17.1,30.13,West,277,18.0,34.0,62,0.00,,---,0.00,VWS V14.01,2013-01-20 06:24:00,
2013-01-20 00:29:00,28.2,17.6,30.13,West,279,19.0,19.0,64,0.00,,---,0.00,VWS V14.01,2013-01-20 06:29:00,
2013-01-20 00:30:00,24.5,13.7,30.17,West,281,19.0,31.0,63,0.00,,---,0.00,VWS V14.01,2013-01-20 06:30:00,
2013-01-20 00:34:00,28.0,17.8,30.14,West,278,21.0,23.0,65,0.00,,---,0.00,VWS V14.01,2013-01-20 06:34:00,
2013-01-20 00:39:00,27.8,16.1,30.14,WNW,298,17.0,30.0,61,0.00,,---,0.00,VWS V14.01,2013-01-20 06:39:00,
2013-01-20 00:44:00,27.5,15.8,30.15,West,274,20.0,30.0,61,0.00,,---,0.00,VWS V14.01,2013-01-20 06:44:00,
2013-01-20 00:49:00,27.0,15.7,30.15,West,275,19.0,30.0,62,0.00,,---,0.00,VWS V14.01,2013-01-20 06:49:00,
2013-01-20 00:54:00,26.6,15.7,30.15,West,267,23.0,30.0,63,0.00,,---,0.00,VWS V14.01,2013-01-20 06:54:00,
2013-01-20 00:59:00,26.3,14.7,30.15,West,276,27.0,29.0,61,0.00,,---,0.00,VWS V14.01,2013-01-20 06:59:00,
2013-01-20 01:00:00,23.6,12.5,30.19,WNW,285,14.0,26.0,62,0.00,,---,0.00,VWS V14.01,2013-01-20 07:00:00,
2013-01-20 01:04:00,25.9,14.3,30.16,West,273,20.0,30.0,61,0.00,,---,0.00,VWS V14.01,2013-01-20 07:04:00,
2013-01-20 01:09:00,25.5,14.3,30.16,West,275,25.0,30.0,62,0.00,,---,0.00,VWS V14.01,2013-01-20 07:09:00,
2013-01-20 01:14:00,25.2,13.6,30.16,West,278,22.0,30.0,61,0.00,,---,0.00,VWS V14.01,2013-01-20 07:14:00,
2013-01-20 01:19:00,24.9,13.4,30.17,West,275,19.0,31.0,61,0.00,,---,0.00,VWS V14.01,2013-01-20 07:19:00,
2013-01-20 01:25:00,24.7,13.9,30.17,West,277,15.0,31.0,63,0.00,,---,0.00,VWS V14.01,2013-01-20 07:25:00,
2013-01-20 01:30:00,24.5,13.4,30.17,West,271,18.0,25.0,62,0.00,,---,0.00,VWS V14.01,2013-01-20 07:30:00,
2013-01-20 01:35:00,24.4,13.3,30.18,West,275,23.0,25.0,62,0.00,,---,0.00,VWS V14.01,2013-01-20 07:35:00,
2013-01-20 01:40:00,24.2,13.1,30.18,WNW,296,20.0,26.0,62,0.00,,---,0.00,VWS V14.01,2013-01-20 07:40:00,
2013-01-20 01:45:00,24.0,12.9,30.19,WNW,287,13.0,26.0,62,0.00,,---,0.00,VWS V14.01,2013-01-20 07:45:00,
2013-01-20 01:50:00,23.8,12.3,30.19,WNW,290,17.0,26.0,61,0.00,,---,0.00,VWS V14.01,2013-01-20 07:50:00,
2013-01-20 01:55:00,23.7,12.2,30.19,WNW,292,14.0,26.0,61,0.00,,---,0.00,VWS V14.01,2013-01-20 07:55:00,
2013-01-20 02:00:00,23.6,12.9,30.20,WNW,287,16.0,17.0,63,0.00,,---,0.00,VWS V14.01,2013-01-20 08:00:00,
2013-01-20 02:05:00,23.4,13.0,30.20,WNW,284,18.0,21.0,64,0.00,,---,0.00,VWS V14.01,2013-01-20 08:05:00,
2013-01-20 02:10:00,23.1,13.1,30.20,West,277,15.0,21.0,65,0.00,,---,0.00,VWS V14.01,2013-01-20 08:10:00,
2013-01-20 02:15:00,23.0,11.9,30.20,WNW,284,13.0,24.0,62,0.00,,---,0.00,VWS V14.01,2013-01-20 08:15:00,
2013-01-20 02:20:00,22.9,12.6,30.20,West,278,18.0,24.0,64,0.00,,---,0.00,VWS V14.01,2013-01-20 08:20:00,
2013-01-20 02:25:00,22.7,12.4,30.20,West,279,14.0,24.0,64,0.00,,---,0.00,VWS V14.01,2013-01-20 08:25:00,
2013-01-20 02:30:00,20.9,12.7,30.24,West,279,22.0,26.0,70,0.00,,---,0.00,VWS V14.01,2013-01-20 08:30:00,
2013-01-20 02:31:00,22.6,11.9,30.21,WNW,288,20.0,20.0,63,0.00,,---,0.00,VWS V14.01,2013-01-20 08:31:00,
2013-01-20 02:36:00,22.5,12.2,30.21,WNW,284,15.0,21.0,64,0.00,,---,0.00,VWS V14.01,2013-01-20 08:36:00,
2013-01-20 02:41:00,22.2,11.9,30.22,West,275,21.0,24.0,64,0.00,,---,0.00,VWS V14.01,2013-01-20 08:41:00,
2013-01-20 02:46:00,21.8,11.5,30.22,West,271,16.0,27.0,64,0.00,,---,0.00,VWS V14.01,2013-01-20 08:46:00,
2013-01-20 02:51:00,21.6,11.7,30.22,West,279,15.0,27.0,65,0.00,,---,0.00,VWS V14.01,2013-01-20 08:51:00,
2013-01-20 02:56:00,21.5,11.6,30.23,WNW,300,20.0,27.0,65,0.00,,---,0.00,VWS V14.01,2013-01-20 08:56:00,
2013-01-20 03:00:00,19.8,11.6,30.26,WNW,284,12.0,26.0,70,0.00,,---,0.00,VWS V14.01,2013-01-20 09:00:00,
2013-01-20 03:01:00,21.4,11.5,30.23,WNW,288,15.0,23.0,65,0.00,,---,0.00,VWS V14.01,2013-01-20 09:01:00,
2013-01-20 03:06:00,21.3,11.0,30.23,WNW,284,24.0,26.0,64,0.00,,---,0.00,VWS V14.01,2013-01-20 09:06:00,
2013-01-20 03:11:00,21.3,10.7,30.23,WNW,296,13.0,26.0,63,0.00,,---,0.00,VWS V14.01,2013-01-20 09:11:00,
2013-01-20 03:17:00,21.2,11.6,30.24,WNW,301,23.0,26.0,66,0.00,,---,0.00,VWS V14.01,2013-01-20 09:17:00,
2013-01-20 03:22:00,21.2,12.0,30.24,WNW,289,15.0,26.0,67,0.00,,---,0.00,VWS V14.01,2013-01-20 09:22:00,
2013-01-20 03:27:00,21.0,12.4,30.24,West,264,14.0,26.0,69,0.00,,---,0.00,VWS V14.01,2013-01-20 09:27:00,
2013-01-20 03:30:00,19.1,11.6,30.27,West,277,19.0,27.0,72,0.00,,---,0.00,VWS V14.01,2013-01-20 09:30:00,
2013-01-20 03:32:00,20.8,11.9,30.24,West,279,21.0,26.0,68,0.00,,---,0.00,VWS V14.01,2013-01-20 09:32:00,
2013-01-20 03:37:00,20.6,11.7,30.24,West,279,15.0,26.0,68,0.00,,---,0.00,VWS V14.01,2013-01-20 09:37:00,
2013-01-20 03:42:00,20.5,11.6,30.25,West,274,15.0,26.0,68,0.00,,---,0.00,VWS V14.01,2013-01-20 09:42:00,
2013-01-20 03:47:00,20.3,11.4,30.25,West,277,16.0,26.0,68,0.00,,---,0.00,VWS V14.01,2013-01-20 09:47:00,
2013-01-20 03:52:00,20.1,11.9,30.25,West,275,14.0,26.0,70,0.00,,---,0.00,VWS V14.01,2013-01-20 09:52:00,
2013-01-20 03:57:00,19.9,12.0,30.26,West,279,17.0,26.0,71,0.00,,---,0.00,VWS V14.01,2013-01-20 09:57:00,
2013-01-20 04:00:00,18.0,10.2,30.27,West,276,15.0,28.0,71,0.00,,---,0.00,VWS V14.01,2013-01-20 10:00:00,
2013-01-20 04:02:00,19.7,11.2,30.26,WNW,288,17.0,21.0,69,0.00,,---,0.00,VWS V14.01,2013-01-20 10:02:00,
2013-01-20 04:07:00,19.6,11.4,30.26,WNW,294,21.0,24.0,70,0.00,,---,0.00,VWS V14.01,2013-01-20 10:07:00,
2013-01-20 04:12:00,19.5,10.7,30.26,WNW,292,19.0,27.0,68,0.00,,---,0.00,VWS V14.01,2013-01-20 10:12:00,
2013-01-20 04:17:00,19.4,11.2,30.26,WNW,294,22.0,27.0,70,0.00,,---,0.00,VWS V14.01,2013-01-20 10:17:00,
2013-01-20 04:22:00,19.4,11.9,30.26,WNW,285,12.0,27.0,72,0.00,,---,0.00,VWS V14.01,2013-01-20 10:22:00,
2013-01-20 04:27:00,19.2,11.7,30.27,West,277,19.0,27.0,72,0.00,,---,0.00,VWS V14.01,2013-01-20 10:27:00,
2013-01-20 04:30:00,17.3,9.8,30.28,WNW,294,14.0,21.0,72,0.00,,---,0.00,VWS V14.01,2013-01-20 10:30:00,
2013-01-20 04:32:00,19.0,11.5,30.27,WNW,290,18.0,23.0,72,0.00,,---,0.00,VWS V14.01,2013-01-20 10:32:00,
2013-01-20 04:37:00,18.7,10.9,30.28,WNW,295,22.0,28.0,71,0.00,,---,0.00,VWS V14.01,2013-01-20 10:37:00,
2013-01-20 04:43:00,18.4,10.3,30.27,WNW,298,19.0,28.0,70,0.00,,---,0.00,VWS V14.01,2013-01-20 10:43:00,
2013-01-20 04:48:00,18.2,10.1,30.27,WNW,288,18.0,28.0,70,0.00,,---,0.00,VWS V14.01,2013-01-20 10:48:00,
2013-01-20 04:53:00,18.1,10.3,30.27,WNW,294,20.0,28.0,71,0.00,,---,0.00,VWS V14.01,2013-01-20 10:53:00,
2013-01-20 04:58:00,18.0,10.2,30.27,WNW,288,15.0,28.0,71,0.00,,---,0.00,VWS V14.01,2013-01-20 10:58:00,
2013-01-20 05:00:00,16.7,9.6,30.30,WNW,296,18.0,21.0,73,0.00,,---,0.00,VWS V14.01,2013-01-20 11:00:00,
2013-01-20 05:03:00,17.9,10.4,30.27,WNW,290,13.0,18.0,72,0.00,,---,0.00,VWS V14.01,2013-01-20 11:03:00,
2013-01-20 05:08:00,17.7,10.5,30.27,NW,306,18.0,19.0,73,0.00,,---,0.00,VWS V14.01,2013-01-20 11:08:00,
2013-01-20 05:13:00,17.6,9.8,30.28,WNW,301,17.0,21.0,71,0.00,,---,0.00,VWS V14.01,2013-01-20 11:13:00,
2013-01-20 05:18:00,17.5,9.7,30.28,WNW,292,16.0,21.0,71,0.00,,---,0.00,VWS V14.01,2013-01-20 11:18:00,
2013-01-20 05:23:00,17.4,9.9,30.28,NW,314,14.0,21.0,72,0.00,,---,0.00,VWS V14.01,2013-01-20 11:23:00,
2013-01-20 05:28:00,17.3,9.8,30.28,WNW,294,14.0,21.0,72,0.00,,---,0.00,VWS V14.01,2013-01-20 11:28:00,
2013-01-20 05:30:00,16.2,9.4,30.32,WNW,292,13.0,18.0,74,0.00,,---,0.00,VWS V14.01,2013-01-20 11:30:00,
2013-01-20 05:33:00,17.3,9.8,30.28,WNW,293,18.0,20.0,72,0.00,,---,0.00,VWS V14.01,2013-01-20 11:33:00,
2013-01-20 05:38:00,17.2,9.7,30.28,WNW,295,12.0,20.0,72,0.00,,---,0.00,VWS V14.01,2013-01-20 11:38:00,
2013-01-20 05:43:00,17.1,10.3,30.28,NW,315,13.0,20.0,74,0.00,,---,0.00,VWS V14.01,2013-01-20 11:43:00,
2013-01-20 05:48:00,17.0,9.9,30.29,WNW,302,20.0,21.0,73,0.00,,---,0.00,VWS V14.01,2013-01-20 11:48:00,
2013-01-20 05:53:00,16.8,9.0,30.29,WNW,296,20.0,21.0,71,0.00,,---,0.00,VWS V14.01,2013-01-20 11:53:00,
2013-01-20 05:58:00,16.7,9.6,30.30,WNW,294,15.0,18.0,73,0.00,,---,0.00,VWS V14.01,2013-01-20 11:58:00,
2013-01-20 06:00:00,15.9,9.4,30.33,WNW,298,11.0,18.0,75,0.00,,---,0.00,VWS V14.01,2013-01-20 12:00:00,
2013-01-20 06:04:00,16.6,9.8,30.30,NW,306,16.0,18.0,74,0.00,,---,0.00,VWS V14.01,2013-01-20 12:04:00,
2013-01-20 06:11:00,16.6,9.5,30.31,WNW,295,18.0,18.0,73,0.00,,---,0.00,VWS V14.01,2013-01-20 12:11:00,
2013-01-20 06:17:00,16.4,9.6,30.31,WNW,285,11.0,18.0,74,0.00,,---,0.00,VWS V14.01,2013-01-20 12:17:00,
2013-01-20 06:22:00,16.3,9.5,30.31,WNW,288,15.0,18.0,74,0.00,,---,0.00,VWS V14.01,2013-01-20 12:22:00,
2013-01-20 06:27:00,16.2,9.4,30.32,WNW,297,11.0,18.0,74,0.00,,---,0.00,VWS V14.01,2013-01-20 12:27:00,
2013-01-20 06:30:00,15.8,9.0,30.33,WNW,294,17.0,19.0,74,0.00,,---,0.00,VWS V14.01,2013-01-20 12:30:00,
2013-01-20 06:32:00,16.2,9.7,30.32,WNW,299,11.0,14.0,75,0.00,,---,0.00,VWS V14.01,2013-01-20 12:32:00,
2013-01-20 06:37:00,16.1,9.3,30.32,WNW,293,13.0,16.0,74,0.00,,---,0.00,VWS V14.01,2013-01-20 12:37:00,
2013-01-20 06:42:00,16.0,9.2,30.32,WNW,291,10.0,18.0,74,0.00,,---,0.00,VWS V14.01,2013-01-20 12:42:00,
2013-01-20 06:48:00,16.0,9.2,30.32,WNW,295,13.0,18.0,74,0.00,,---,0.00,VWS V14.01,2013-01-20 12:48:00,
2013-01-20 06:53:00,15.9,9.4,30.32,WNW,292,12.0,18.0,75,0.00,,---,0.00,VWS V14.01,2013-01-20 12:53:00,
2013-01-20 06:58:00,15.9,9.4,30.33,WNW,300,13.0,18.0,75,0.00,,---,0.00,VWS V14.01,2013-01-20 12:58:00,
2013-01-20 07:00:00,16.1,9.9,30.33,NW,318,8.0,17.0,76,0.00,,---,0.00,VWS V14.01,2013-01-20 13:00:00,
2013-01-20 07:03:00,15.9,9.4,30.33,WNW,298,15.0,19.0,75,0.00,,---,0.00,VWS V14.01,2013-01-20 13:03:00,
2013-01-20 07:08:00,15.8,9.3,30.33,WNW,295,16.0,19.0,75,0.00,,---,0.00,VWS V14.01,2013-01-20 13:08:00,
2013-01-20 07:13:00,15.8,9.0,30.33,WNW,301,14.0,19.0,74,0.00,,---,0.00,VWS V14.01,2013-01-20 13:13:00,
2013-01-20 07:18:00,15.8,9.3,30.33,WNW,292,17.0,19.0,75,0.00,,---,0.00,VWS V14.01,2013-01-20 13:18:00,
2013-01-20 07:23:00,15.8,9.0,30.34,WNW,302,15.0,19.0,74,0.00,,---,0.00,VWS V14.01,2013-01-20 13:23:00,
2013-01-20 07:28:00,15.8,9.0,30.33,WNW,292,15.0,19.0,74,0.00,,---,0.00,VWS V14.01,2013-01-20 13:28:00,
2013-01-20 07:30:00,16.7,9.6,30.34,NW,317,11.0,15.0,73,0.00,,---,0.00,VWS V14.01,2013-01-20 13:30:00,
2013-01-20 07:33:00,15.7,8.9,30.33,WNW,298,11.0,17.0,74,0.00,,---,0.00,VWS V14.01,2013-01-20 13:33:00,
2013-01-20 07:38:00,15.8,9.3,30.33,WNW,302,11.0,17.0,75,0.00,,---,0.00,VWS V14.01,2013-01-20 13:38:00,
2013-01-20 07:43:00,15.8,9.3,30.33,NW,324,10.0,17.0,75,0.00,,---,0.00,VWS V14.01,2013-01-20 13:43:00,
2013-01-20 07:48:00,15.9,9.4,30.34,NNW,327,8.0,17.0,75,0.00,,---,0.00,VWS V14.01,2013-01-20 13:48:00,
2013-01-20 07:53:00,15.9,9.7,30.33,NW,308,8.0,17.0,76,0.00,,---,0.00,VWS V14.01,2013-01-20 13:53:00,
2013-01-20 07:58:00,16.1,9.9,30.33,NW,318,8.0,17.0,76,0.00,,---,0.00,VWS V14.01,2013-01-20 13:58:00,
2013-01-20 08:00:00,16.7,9.6,30.35,NW,316,14.0,15.0,73,0.00,,---,0.00,VWS V14.01,2013-01-20 14:00:00,
2013-01-20 08:03:00,16.1,9.3,30.33,NW,311,11.0,14.0,74,0.00,,---,0.00,VWS V14.01,2013-01-20 14:03:00,
2013-01-20 08:08:00,16.2,9.4,30.33,NW,305,11.0,15.0,74,0.00,,---,0.00,VWS V14.01,2013-01-20 14:08:00,
2013-01-20 08:14:00,16.4,9.6,30.33,NW,307,14.0,15.0,74,0.00,,---,0.00,VWS V14.01,2013-01-20 14:14:00,
2013-01-20 08:19:00,16.5,9.4,30.33,NW,311,13.0,15.0,73,0.00,,---,0.00,VWS V14.01,2013-01-20 14:19:00,
2013-01-20 08:24:00,16.6,9.8,30.33,NW,317,12.0,15.0,74,0.00,,---,0.00,VWS V14.01,2013-01-20 14:24:00,
2013-01-20 08:29:00,16.7,9.6,30.34,WNW,291,10.0,11.0,73,0.00,,---,0.00,VWS V14.01,2013-01-20 14:29:00,
2013-01-20 08:30:00,17.3,9.2,30.35,NW,319,11.0,15.0,70,0.00,,---,0.00,VWS V14.01,2013-01-20 14:30:00,
2013-01-20 08:34:00,16.5,9.4,30.34,NW,319,9.0,15.0,73,0.00,,---,0.00,VWS V14.01,2013-01-20 14:34:00,
2013-01-20 08:39:00,16.5,9.4,30.34,NW,311,11.0,15.0,73,0.00,,---,0.00,VWS V14.01,2013-01-20 14:39:00,
2013-01-20 08:44:00,16.6,9.8,30.35,NW,324,11.0,15.0,74,0.00,,---,0.00,VWS V14.01,2013-01-20 14:44:00,
2013-01-20 08:49:00,16.7,9.6,30.35,NW,309,11.0,15.0,73,0.00,,---,0.00,VWS V14.01,2013-01-20 14:49:00,
2013-01-20 08:54:00,16.6,9.5,30.34,NW,308,12.0,15.0,73,0.00,,---,0.00,VWS V14.01,2013-01-20 14:54:00,
2013-01-20 08:59:00,16.7,9.3,30.35,NW,319,13.0,14.0,72,0.00,,---,0.00,VWS V14.01,2013-01-20 14:59:00,
2013-01-20 09:00:00,18.3,9.9,30.36,NW,314,8.0,12.0,69,0.00,,---,0.00,VWS V14.01,2013-01-20 15:00:00,
2013-01-20 09:04:00,16.7,9.6,30.35,NNW,327,11.0,14.0,73,0.00,,---,0.00,VWS V14.01,2013-01-20 15:04:00,
2013-01-20 09:09:00,17.0,9.9,30.35,NW,326,9.0,14.0,73,0.00,,---,0.00,VWS V14.01,2013-01-20 15:09:00,
2013-01-20 09:14:00,17.0,8.9,30.35,NNW,332,9.0,15.0,70,0.00,,---,0.00,VWS V14.01,2013-01-20 15:14:00,
2013-01-20 09:19:00,17.3,9.5,30.35,NW,311,7.0,15.0,71,0.00,,---,0.00,VWS V14.01,2013-01-20 15:19:00,
2013-01-20 09:24:00,17.4,9.3,30.35,NW,304,11.0,15.0,70,0.00,,---,0.00,VWS V14.01,2013-01-20 15:24:00,
2013-01-20 09:29:00,17.3,9.2,30.34,WNW,300,12.0,12.0,70,0.00,,---,0.00,VWS V14.01,2013-01-20 15:29:00,
2013-01-20 09:30:00,18.4,10.6,30.37,WNW,300,9.0,10.0,71,0.00,,---,0.00,VWS V14.01,2013-01-20 15:30:00,
2013-01-20 09:34:00,17.7,9.9,30.35,NW,309,10.0,12.0,71,0.00,,---,0.00,VWS V14.01,2013-01-20 15:34:00,
2013-01-20 09:40:00,18.0,10.2,30.36,WNW,302,8.0,12.0,71,0.00,,---,0.00,VWS V14.01,2013-01-20 15:40:00,
2013-01-20 09:45:00,18.3,10.2,30.36,NW,304,10.0,12.0,70,0.00,,---,0.00,VWS V14.01,2013-01-20 15:45:00,
2013-01-20 09:50:00,18.0,9.9,30.36,NNW,335,9.0,12.0,70,0.00,,---,0.00,VWS V14.01,2013-01-20 15:50:00,
2013-01-20 09:55:00,18.1,10.0,30.36,NNW,336,7.0,12.0,70,0.00,,---,0.00,VWS V14.01,2013-01-20 15:55:00,
2013-01-20 10:00:00,18.4,9.9,30.36,NW,313,7.0,10.0,69,0.00,,---,0.00,VWS V14.01,2013-01-20 16:00:00,
2013-01-20 10:05:00,18.3,9.9,30.36,WNW,286,7.0,10.0,69,0.00,,---,0.00,VWS V14.01,2013-01-20 16:05:00,
2013-01-20 10:10:00,18.2,10.1,30.36,WNW,300,8.0,10.0,70,0.00,,---,0.00,VWS V14.01,2013-01-20 16:10:00,
2013-01-20 10:15:00,18.0,9.6,30.36,WNW,290,9.0,10.0,69,0.00,,---,0.00,VWS V14.01,2013-01-20 16:15:00,
2013-01-20 10:21:00,18.0,9.9,30.36,NW,313,8.0,10.0,70,0.00,,---,0.00,VWS V14.01,2013-01-20 16:21:00,
2013-01-20 10:26:00,18.1,10.0,30.37,NW,310,6.0,10.0,70,0.00,,---,0.00,VWS V14.01,2013-01-20 16:26:00,
2013-01-20 10:30:00,19.6,10.1,30.36,WNW,302,6.0,12.0,66,0.00,,---,0.00,VWS V14.01,2013-01-20 16:30:00,
2013-01-20 10:31:00,18.5,10.4,30.37,WNW,296,7.0,10.0,70,0.00,,---,0.00,VWS V14.01,2013-01-20 16:31:00,
2013-01-20 10:36:00,18.3,9.5,30.37,West,279,6.0,11.0,68,0.00,,---,0.00,VWS V14.01,2013-01-20 16:36:00,
2013-01-20 10:41:00,18.5,10.0,30.37,West,275,10.0,11.0,69,0.00,,---,0.00,VWS V14.01,2013-01-20 16:41:00,
2013-01-20 10:46:00,18.6,9.5,30.37,West,280,7.0,11.0,67,0.00,,---,0.00,VWS V14.01,2013-01-20 16:46:00,
2013-01-20 10:51:00,18.9,10.4,30.37,West,262,5.0,11.0,69,0.00,,---,0.00,VWS V14.01,2013-01-20 16:51:00,
2013-01-20 10:56:00,19.1,10.6,30.36,WSW,257,9.0,11.0,69,0.00,,---,0.00,VWS V14.01,2013-01-20 16:56:00,
2013-01-20 11:00:00,20.3,10.4,30.35,WNW,298,8.0,14.0,65,0.00,,---,0.00,VWS V14.01,2013-01-20 17:00:00,
2013-01-20 11:02:00,19.0,10.5,30.36,West,275,12.0,12.0,69,0.00,,---,0.00,VWS V14.01,2013-01-20 17:02:00,
2013-01-20 11:07:00,19.3,10.8,30.36,WNW,284,8.0,12.0,69,0.00,,---,0.00,VWS V14.01,2013-01-20 17:07:00,
2013-01-20 11:12:00,19.5,10.3,30.37,West,276,10.0,12.0,67,0.00,,---,0.00,VWS V14.01,2013-01-20 17:12:00,
2013-01-20 11:17:00,19.3,10.1,30.36,West,263,5.0,12.0,67,0.00,,---,0.00,VWS V14.01,2013-01-20 17:17:00,
2013-01-20 11:22:00,19.6,10.8,30.36,West,277,11.0,12.0,68,0.00,,---,0.00,VWS V14.01,2013-01-20 17:22:00,
2013-01-20 11:27:00,19.7,10.2,30.36,WNW,291,6.0,12.0,66,0.00,,---,0.00,VWS V14.01,2013-01-20 17:27:00,
2013-01-20 11:30:00,20.6,10.4,30.34,WNW,301,7.0,14.0,64,0.00,,---,0.00,VWS V14.01,2013-01-20 17:30:00,
2013-01-20 11:32:00,19.9,11.1,30.35,West,281,9.0,11.0,68,0.00,,---,0.00,VWS V14.01,2013-01-20 17:32:00,
2013-01-20 11:37:00,19.7,10.2,30.35,West,261,10.0,12.0,66,0.00,,---,0.00,VWS V14.01,2013-01-20 17:37:00,
2013-01-20 11:42:00,20.1,10.9,30.36,West,269,11.0,12.0,67,0.00,,---,0.00,VWS V14.01,2013-01-20 17:42:00,
2013-01-20 11:47:00,20.0,11.1,30.35,West,265,8.0,13.0,68,0.00,,---,0.00,VWS V14.01,2013-01-20 17:47:00,
2013-01-20 11:52:00,20.5,11.0,30.35,West,273,9.0,14.0,66,0.00,,---,0.00,VWS V14.01,2013-01-20 17:52:00,
2013-01-20 11:58:00,20.4,10.5,30.35,WNW,286,9.0,14.0,65,0.00,,---,0.00,VWS V14.01,2013-01-20 17:58:00,
2013-01-20 12:00:00,21.3,9.6,30.34,NW,308,11.0,17.0,60,0.00,,---,0.00,VWS V14.01,2013-01-20 18:00:00,
2013-01-20 12:03:00,20.4,10.9,30.35,West,275,9.0,12.0,66,0.00,,---,0.00,VWS V14.01,2013-01-20 18:03:00,
2013-01-20 12:08:00,20.3,10.4,30.35,WNW,290,9.0,12.0,65,0.00,,---,0.00,VWS V14.01,2013-01-20 18:08:00,
2013-01-20 12:13:00,20.2,10.3,30.35,WNW,292,8.0,14.0,65,0.00,,---,0.00,VWS V14.01,2013-01-20 18:13:00,
2013-01-20 12:18:00,20.3,10.1,30.34,West,281,12.0,14.0,64,0.00,,---,0.00,VWS V14.01,2013-01-20 18:18:00,
2013-01-20 12:23:00,20.4,10.2,30.34,WNW,286,9.0,14.0,64,0.00,,---,0.00,VWS V14.01,2013-01-20 18:23:00,
2013-01-20 12:28:00,20.6,10.4,30.34,WNW,300,8.0,14.0,64,0.00,,---,0.00,VWS V14.01,2013-01-20 18:28:00,
2013-01-20 12:30:00,21.1,10.1,30.33,NW,312,9.0,15.0,62,0.00,,---,0.00,VWS V14.01,2013-01-20 18:30:00,
2013-01-20 12:33:00,20.6,10.4,30.34,WNW,286,11.0,12.0,64,0.00,,---,0.00,VWS V14.01,2013-01-20 18:33:00,
2013-01-20 12:38:00,20.9,10.3,30.34,WNW,290,8.0,14.0,63,0.00,,---,0.00,VWS V14.01,2013-01-20 18:38:00,
2013-01-20 12:43:00,20.9,11.0,30.34,WNW,283,12.0,17.0,65,0.00,,---,0.00,VWS V14.01,2013-01-20 18:43:00,
2013-01-20 12:48:00,21.4,11.5,30.34,WNW,294,9.0,17.0,65,0.00,,---,0.00,VWS V14.01,2013-01-20 18:48:00,
2013-01-20 12:53:00,21.3,11.0,30.34,WNW,291,10.0,17.0,64,0.00,,---,0.00,VWS V14.01,2013-01-20 18:53:00,
2013-01-20 12:58:00,21.3,9.6,30.34,NW,308,11.0,17.0,60,0.00,,---,0.00,VWS V14.01,2013-01-20 18:58:00,
2013-01-20 13:00:00,20.8,10.2,30.34,WNW,293,10.0,14.0,63,0.00,,---,0.00,VWS V14.01,2013-01-20 19:00:00,
2013-01-20 13:03:00,21.2,9.9,30.34,NW,312,12.0,15.0,61,0.00,,---,0.00,VWS V14.01,2013-01-20 19:03:00,
2013-01-20 13:09:00,21.1,9.0,30.33,WNW,302,13.0,15.0,59,0.00,,---,0.00,VWS V14.01,2013-01-20 19:09:00,
2013-01-20 13:14:00,21.2,8.7,30.34,WNW,302,12.0,15.0,58,0.00,,---,0.00,VWS V14.01,2013-01-20 19:14:00,
2013-01-20 13:19:00,21.0,8.6,30.33,WNW,303,12.0,15.0,58,0.00,,---,0.00,VWS V14.01,2013-01-20 19:19:00,
2013-01-20 13:24:00,20.8,8.4,30.33,West,281,11.0,15.0,58,0.00,,---,0.00,VWS V14.01,2013-01-20 19:24:00,
2013-01-20 13:29:00,21.1,10.1,30.33,NW,305,8.0,9.0,62,0.00,,---,0.00,VWS V14.01,2013-01-20 19:29:00,
2013-01-20 13:30:00,20.7,10.5,30.34,West,273,9.0,13.0,64,0.00,,---,0.00,VWS V14.01,2013-01-20 19:30:00,
2013-01-20 13:34:00,20.9,9.2,30.33,WNW,285,10.0,14.0,60,0.00,,---,0.00,VWS V14.01,2013-01-20 19:34:00,
2013-01-20 13:39:00,20.6,9.3,30.33,WNW,294,10.0,14.0,61,0.00,,---,0.00,VWS V14.01,2013-01-20 19:39:00,
2013-01-20 13:44:00,20.6,9.7,30.33,West,275,7.0,14.0,62,0.00,,---,0.00,VWS V14.01,2013-01-20 19:44:00,
2013-01-20 13:49:00,20.8,9.9,30.33,WNW,302,8.0,14.0,62,0.00,,---,0.00,VWS V14.01,2013-01-20 19:49:00,
2013-01-20 13:54:00,21.0,10.0,30.34,WNW,302,10.0,14.0,62,0.00,,---,0.00,VWS V14.01,2013-01-20 19:54:00,
2013-01-20 13:59:00,20.7,10.1,30.34,WNW,285,6.0,10.0,63,0.00,,---,0.00,VWS V14.01,2013-01-20 19:59:00,
2013-01-20 14:00:00,20.7,11.8,30.34,West,273,12.0,15.0,68,0.00,,---,0.00,VWS V14.01,2013-01-20 20:00:00,
2013-01-20 14:04:00,20.7,10.5,30.34,NW,317,8.0,13.0,64,0.00,,---,0.00,VWS V14.01,2013-01-20 20:04:00,
2013-01-20 14:09:00,20.7,9.8,30.34,WNW,286,7.0,13.0,62,0.00,,---,0.00,VWS V14.01,2013-01-20 20:09:00,
2013-01-20 14:14:00,20.6,9.7,30.34,WNW,286,10.0,13.0,62,0.00,,---,0.00,VWS V14.01,2013-01-20 20:14:00,
2013-01-20 14:20:00,20.7,10.8,30.34,West,281,12.0,13.0,65,0.00,,---,0.00,VWS V14.01,2013-01-20 20:20:00,
2013-01-20 14:25:00,20.7,10.8,30.34,West,277,10.0,13.0,65,0.00,,---,0.00,VWS V14.01,2013-01-20 20:25:00,
2013-01-20 14:30:00,20.7,10.8,30.34,West,270,7.0,10.0,65,0.00,,---,0.00,VWS V14.01,2013-01-20 20:30:00,
2013-01-20 14:35:00,20.7,10.8,30.34,West,274,11.0,14.0,65,0.00,,---,0.00,VWS V14.01,2013-01-20 20:35:00,
2013-01-20 14:40:00,21.0,11.1,30.34,West,263,11.0,14.0,65,0.00,,---,0.00,VWS V14.01,2013-01-20 20:40:00,
2013-01-20 14:45:00,20.8,10.6,30.34,WNW,292,12.0,14.0,64,0.00,,---,0.00,VWS V14.01,2013-01-20 20:45:00,
2013-01-20 14:50:00,20.8,11.2,30.34,West,275,10.0,15.0,66,0.00,,---,0.00,VWS V14.01,2013-01-20 20:50:00,
2013-01-20 14:55:00,20.7,12.1,30.34,West,271,12.0,15.0,69,0.00,,---,0.00,VWS V14.01,2013-01-20 20:55:00,
2013-01-20 15:00:00,20.6,11.7,30.34,WSW,257,15.0,15.0,68,0.00,,---,0.00,VWS V14.01,2013-01-20 21:00:00,
2013-01-20 15:05:00,20.5,11.6,30.34,WNW,292,12.0,15.0,68,0.00,,---,0.00,VWS V14.01,2013-01-20 21:05:00,
2013-01-20 15:10:00,20.5,12.3,30.34,West,268,11.0,15.0,70,0.00,,---,0.00,VWS V14.01,2013-01-20 21:10:00,
2013-01-20 15:15:00,20.4,12.2,30.34,West,281,9.0,15.0,70,0.00,,---,0.00,VWS V14.01,2013-01-20 21:15:00,
2013-01-20 15:20:00,20.5,12.6,30.34,WNW,292,12.0,15.0,71,0.00,,---,0.00,VWS V14.01,2013-01-20 21:20:00,
2013-01-20 15:25:00,20.4,12.2,30.34,West,267,10.0,15.0,70,0.00,,---,0.00,VWS V14.01,2013-01-20 21:25:00,
2013-01-20 15:30:00,20.3,12.7,30.34,West,277,12.0,15.0,72,0.00,,---,0.00,VWS V14.01,2013-01-20 21:30:00,
2013-01-20 15:36:00,20.1,12.9,30.34,West,267,12.0,15.0,73,0.00,,---,0.00,VWS V14.01,2013-01-20 21:36:00,
2013-01-20 15:41:00,20.1,13.2,30.34,West,263,12.0,15.0,74,0.00,,---,0.00,VWS V14.01,2013-01-20 21:41:00,
2013-01-20 15:46:00,20.0,13.4,30.34,West,273,10.0,15.0,75,0.00,,---,0.00,VWS V14.01,2013-01-20 21:46:00,
2013-01-20 15:51:00,20.0,13.1,30.34,West,279,12.0,15.0,74,0.00,,---,0.00,VWS V14.01,2013-01-20 21:51:00,
2013-01-20 15:56:00,19.9,13.0,30.34,WNW,287,8.0,15.0,74,0.00,,---,0.00,VWS V14.01,2013-01-20 21:56:00,
2013-01-20 16:00:00,19.1,13.7,30.34,WNW,282,11.0,15.0,79,0.00,,---,0.00,VWS V14.01,2013-01-20 22:00:00,
2013-01-20 16:01:00,19.9,13.3,30.34,West,278,10.0,13.0,75,0.00,,---,0.00,VWS V14.01,2013-01-20 22:01:00,
2013-01-20 16:06:00,19.9,13.0,30.34,West,280,12.0,14.0,74,0.00,,---,0.00,VWS V14.01,2013-01-20 22:06:00,
2013-01-20 16:11:00,19.8,12.6,30.34,West,273,14.0,16.0,73,0.00,,---,0.00,VWS V14.01,2013-01-20 22:11:00,
2013-01-20 16:17:00,19.6,12.4,30.35,West,275,11.0,17.0,73,0.00,,---,0.00,VWS V14.01,2013-01-20 22:17:00,
2013-01-20 16:22:00,19.8,13.2,30.34,West,267,11.0,17.0,75,0.00,,---,0.00,VWS V14.01,2013-01-20 22:22:00,
2013-01-20 16:27:00,19.7,13.1,30.34,West,281,11.0,17.0,75,0.00,,---,0.00,VWS V14.01,2013-01-20 22:27:00,
2013-01-20 16:30:00,18.6,13.5,30.34,WNW,294,10.0,15.0,80,0.00,,---,0.00,VWS V14.01,2013-01-20 22:30:00,
2013-01-20 16:32:00,19.7,13.4,30.34,West,264,9.0,12.0,76,0.00,,---,0.00,VWS V14.01,2013-01-20 22:32:00,
2013-01-20 16:37:00,19.5,13.5,30.34,West,266,8.0,13.0,77,0.00,,---,0.00,VWS V14.01,2013-01-20 22:37:00,
2013-01-20 16:42:00,19.3,13.0,30.34,West,279,8.0,15.0,76,0.00,,---,0.00,VWS V14.01,2013-01-20 22:42:00,
2013-01-20 16:47:00,19.2,13.2,30.34,West,280,13.0,15.0,77,0.00,,---,0.00,VWS V14.01,2013-01-20 22:47:00,
2013-01-20 16:53:00,19.2,13.5,30.34,West,281,11.0,15.0,78,0.00,,---,0.00,VWS V14.01,2013-01-20 22:53:00,
2013-01-20 16:58:00,19.1,13.7,30.34,WNW,282,11.0,15.0,79,0.00,,---,0.00,VWS V14.01,2013-01-20 22:58:00,
2013-01-20 17:00:00,18.3,13.5,30.34,WNW,285,9.0,13.0,81,0.00,,---,0.00,VWS V14.01,2013-01-20 23:00:00,
2013-01-20 17:03:00,19.0,13.6,30.34,WNW,292,11.0,11.0,79,0.00,,---,0.00,VWS V14.01,2013-01-20 23:03:00,
2013-01-20 17:08:00,18.8,13.4,30.34,WNW,289,12.0,14.0,79,0.00,,---,0.00,VWS V14.01,2013-01-20 23:08:00,
2013-01-20 17:13:00,18.8,13.9,30.34,WNW,292,13.0,14.0,81,0.00,,---,0.00,VWS V14.01,2013-01-20 23:13:00,
2013-01-20 17:18:00,18.6,13.2,30.34,West,281,11.0,14.0,79,0.00,,---,0.00,VWS V14.01,2013-01-20 23:18:00,
2013-01-20 17:23:00,18.6,13.2,30.34,WNW,290,12.0,15.0,79,0.00,,---,0.00,VWS V14.01,2013-01-20 23:23:00,
2013-01-20 17:28:00,18.6,13.5,30.34,WNW,288,13.0,15.0,80,0.00,,---,0.00,VWS V14.01,2013-01-20 23:28:00,
2013-01-20 17:30:00,18.2,13.6,30.35,West,275,12.0,14.0,82,0.00,,---,0.00,VWS V14.01,2013-01-20 23:30:00,
2013-01-20 17:33:00,18.5,13.4,30.34,WNW,283,10.0,13.0,80,0.00,,---,0.00,VWS V14.01,2013-01-20 23:33:00,
2013-01-20 17:38:00,18.5,13.4,30.34,WNW,289,11.0,13.0,80,0.00,,---,0.00,VWS V14.01,2013-01-20 23:38:00,
2013-01-20 17:43:00,18.4,13.0,30.34,WNW,293,10.0,13.0,79,0.00,,---,0.00,VWS V14.01,2013-01-20 23:43:00,
2013-01-20 17:48:00,18.4,13.3,30.34,West,275,10.0,13.0,80,0.00,,---,0.00,VWS V14.01,2013-01-20 23:48:00,
2013-01-20 17:53:00,18.4,13.3,30.34,West,279,9.0,13.0,80,0.00,,---,0.00,VWS V14.01,2013-01-20 23:53:00,
2013-01-20 17:58:00,18.3,13.5,30.34,WNW,285,9.0,13.0,81,0.00,,---,0.00,VWS V14.01,2013-01-20 23:58:00,
2013-01-20 18:00:00,18.1,13.5,30.35,West,280,9.0,15.0,82,0.00,,---,0.00,VWS V14.01,2013-01-21 00:00:00,
2013-01-20 18:03:00,18.4,13.8,30.34,West,270,10.0,13.0,82,0.00,,---,0.00,VWS V14.01,2013-01-21 00:03:00,
2013-01-20 18:08:00,18.3,13.7,30.35,West,281,11.0,13.0,82,0.00,,---,0.00,VWS V14.01,2013-01-21 00:08:00,
2013-01-20 18:13:00,18.3,13.7,30.35,WNW,289,11.0,13.0,82,0.00,,---,0.00,VWS V14.01,2013-01-21 00:13:00,
2013-01-20 18:19:00,18.3,13.5,30.35,West,270,9.0,13.0,81,0.00,,---,0.00,VWS V14.01,2013-01-21 00:19:00,
2013-01-20 18:24:00,18.2,13.4,30.35,West,273,10.0,14.0,81,0.00,,---,0.00,VWS V14.01,2013-01-21 00:24:00,
2013-01-20 18:29:00,18.2,13.6,30.35,West,273,12.0,12.0,82,0.00,,---,0.00,VWS V14.01,2013-01-21 00:29:00,
2013-01-20 18:30:00,17.7,12.6,30.34,West,275,12.0,18.0,80,0.00,,---,0.00,VWS V14.01,2013-01-21 00:30:00,
2013-01-20 18:34:00,18.1,13.5,30.35,West,263,11.0,15.0,82,0.00,,---,0.00,VWS V14.01,2013-01-21 00:34:00,
2013-01-20 18:39:00,18.1,13.5,30.35,West,268,10.0,15.0,82,0.00,,---,0.00,VWS V14.01,2013-01-21 00:39:00,
2013-01-20 18:44:00,18.1,13.5,30.34,West,280,12.0,15.0,82,0.00,,---,0.00,VWS V14.01,2013-01-21 00:44:00,
2013-01-20 18:49:00,18.1,13.5,30.34,West,272,12.0,15.0,82,0.00,,---,0.00,VWS V14.01,2013-01-21 00:49:00,
2013-01-20 18:54:00,18.1,13.5,30.35,WNW,289,10.0,15.0,82,0.00,,---,0.00,VWS V14.01,2013-01-21 00:54:00,
2013-01-20 18:59:00,18.1,13.5,30.35,West,272,11.0,13.0,82,0.00,,---,0.00,VWS V14.01,2013-01-21 00:59:00,
2013-01-20 19:00:00,17.8,13.2,30.34,WNW,286,8.0,13.0,82,0.00,,---,0.00,VWS V14.01,2013-01-21 01:00:00,
2013-01-20 19:04:00,18.0,13.2,30.35,West,269,10.0,15.0,81,0.00,,---,0.00,VWS V14.01,2013-01-21 01:04:00,
2013-01-20 19:09:00,18.0,13.4,30.35,West,276,15.0,15.0,82,0.00,,---,0.00,VWS V14.01,2013-01-21 01:09:00,
2013-01-20 19:14:00,17.8,12.4,30.34,WNW,283,13.0,18.0,79,0.00,,---,0.00,VWS V14.01,2013-01-21 01:14:00,
2013-01-20 19:19:00,17.7,12.6,30.34,West,277,9.0,18.0,80,0.00,,---,0.00,VWS V14.01,2013-01-21 01:19:00,
2013-01-20 19:25:00,17.7,12.6,30.34,West,278,11.0,18.0,80,0.00,,---,0.00,VWS V14.01,2013-01-21 01:25:00,
2013-01-20 19:30:00,17.7,12.6,30.34,West,271,10.0,13.0,80,0.00,,---,0.00,VWS V14.01,2013-01-21 01:30:00,
2013-01-20 19:35:00,17.7,12.6,30.34,West,277,9.0,13.0,80,0.00,,---,0.00,VWS V14.01,2013-01-21 01:35:00,
2013-01-20 19:40:00,17.7,12.9,30.34,West,277,12.0,13.0,81,0.00,,---,0.00,VWS V14.01,2013-01-21 01:40:00,
2013-01-20 19:45:00,17.7,12.9,30.34,WNW,286,8.0,13.0,81,0.00,,---,0.00,VWS V14.01,2013-01-21 01:45:00,
2013-01-20 19:50:00,17.8,13.2,30.34,WNW,294,9.0,13.0,82,0.00,,---,0.00,VWS V14.01,2013-01-21 01:50:00,
2013-01-20 19:55:00,17.8,13.2,30.34,West,277,8.0,13.0,82,0.00,,---,0.00,VWS V14.01,2013-01-21 01:55:00,
2013-01-20 20:00:00,17.9,13.4,30.34,WNW,283,11.0,12.0,82,0.00,,---,0.00,VWS V14.01,2013-01-21 02:00:00,
2013-01-20 20:05:00,17.8,13.0,30.34,West,267,12.0,13.0,81,0.00,,---,0.00,VWS V14.01,2013-01-21 02:05:00,
2013-01-20 20:10:00,17.7,12.6,30.34,West,269,13.0,15.0,80,0.00,,---,0.00,VWS V14.01,2013-01-21 02:10:00,
2013-01-20 20:15:00,17.7,12.3,30.34,West,265,11.0,15.0,79,0.00,,---,0.00,VWS V14.01,2013-01-21 02:15:00,
2013-01-20 20:20:00,17.7,12.0,30.34,WNW,285,11.0,16.0,78,0.00,,---,0.00,VWS V14.01,2013-01-21 02:20:00,
2013-01-20 20:25:00,17.7,12.0,30.34,West,278,15.0,16.0,78,0.00,,---,0.00,VWS V14.01,2013-01-21 02:25:00,
2013-01-20 20:30:00,17.7,12.0,30.34,West,281,11.0,13.0,78,0.00,,---,0.00,VWS V14.01,2013-01-21 02:30:00,
2013-01-20 20:35:00,17.7,12.3,30.34,WNW,286,11.0,13.0,79,0.00,,---,0.00,VWS V14.01,2013-01-21 02:35:00,
2013-01-20 20:41:00,17.7,12.6,30.33,West,277,7.0,13.0,80,0.00,,---,0.00,VWS V14.01,2013-01-21 02:41:00,
2013-01-20 20:46:00,17.8,12.4,30.33,West,274,12.0,14.0,79,0.00,,---,0.00,VWS V14.01,2013-01-21 02:46:00,
2013-01-20 20:51:00,17.7,12.3,30.33,West,281,11.0,15.0,79,0.00,,---,0.00,VWS V14.01,2013-01-21 02:51:00,
2013-01-20 20:56:00,17.7,12.3,30.33,WNW,282,14.0,16.0,79,0.00,,---,0.00,VWS V14.01,2013-01-21 02:56:00,
2013-01-20 21:00:00,17.5,12.1,30.32,West,278,10.0,15.0,79,0.00,,---,0.00,VWS V14.01,2013-01-21 03:00:00,
2013-01-20 21:01:00,17.7,12.6,30.33,West,279,13.0,17.0,80,0.00,,---,0.00,VWS V14.01,2013-01-21 03:01:00,
2013-01-20 21:06:00,17.7,12.3,30.33,West,273,14.0,17.0,79,0.00,,---,0.00,VWS V14.01,2013-01-21 03:06:00,
2013-01-20 21:11:00,17.7,12.0,30.33,WNW,301,14.0,17.0,78,0.00,,---,0.00,VWS V14.01,2013-01-21 03:11:00,
2013-01-20 21:16:00,17.6,11.9,30.33,WNW,292,14.0,17.0,78,0.00,,---,0.00,VWS V14.01,2013-01-21 03:16:00,
2013-01-20 21:21:00,17.7,12.3,30.33,West,279,11.0,17.0,79,0.00,,---,0.00,VWS V14.01,2013-01-21 03:21:00,
2013-01-20 21:26:00,17.7,12.3,30.33,West,281,9.0,17.0,79,0.00,,---,0.00,VWS V14.01,2013-01-21 03:26:00,
2013-01-20 21:30:00,17.3,12.2,30.33,WNW,286,12.0,16.0,80,0.00,,---,0.00,VWS V14.01,2013-01-21 03:30:00,
2013-01-20 21:31:00,17.6,12.2,30.33,West,281,12.0,14.0,79,0.00,,---,0.00,VWS V14.01,2013-01-21 03:31:00,
2013-01-20 21:37:00,17.6,12.2,30.33,WNW,290,10.0,14.0,79,0.00,,---,0.00,VWS V14.01,2013-01-21 03:37:00,
2013-01-20 21:42:00,17.6,12.5,30.33,West,281,8.0,14.0,80,0.00,,---,0.00,VWS V14.01,2013-01-21 03:42:00,
2013-01-20 21:47:00,17.6,12.5,30.33,WNW,288,12.0,14.0,80,0.00,,---,0.00,VWS V14.01,2013-01-21 03:47:00,
2013-01-20 21:52:00,17.5,12.1,30.33,WNW,294,8.0,14.0,79,0.00,,---,0.00,VWS V14.01,2013-01-21 03:52:00,
2013-01-20 21:57:00,17.5,12.4,30.33,West,275,14.0,15.0,80,0.00,,---,0.00,VWS V14.01,2013-01-21 03:57:00,
2013-01-20 22:00:00,16.8,11.1,30.33,West,277,16.0,19.0,78,0.00,,---,0.00,VWS V14.01,2013-01-21 04:00:00,
2013-01-20 22:02:00,17.5,12.4,30.33,West,272,12.0,14.0,80,0.00,,---,0.00,VWS V14.01,2013-01-21 04:02:00,
2013-01-20 22:08:00,17.4,12.0,30.33,West,280,11.0,16.0,79,0.00,,---,0.00,VWS V14.01,2013-01-21 04:08:00,
2013-01-20 22:13:00,17.3,11.9,30.33,West,279,15.0,16.0,79,0.00,,---,0.00,VWS V14.01,2013-01-21 04:13:00,
2013-01-20 22:18:00,17.1,11.7,30.33,West,278,9.0,16.0,79,0.00,,---,0.00,VWS V14.01,2013-01-21 04:18:00,
2013-01-20 22:23:00,17.2,12.1,30.33,WNW,285,13.0,16.0,80,0.00,,---,0.00,VWS V14.01,2013-01-21 04:23:00,
2013-01-20 22:28:00,17.3,12.2,30.33,WNW,292,12.0,16.0,80,0.00,,---,0.00,VWS V14.01,2013-01-21 04:28:00,
2013-01-20 22:30:00,16.3,11.2,30.33,West,277,8.0,16.0,80,0.00,,---,0.00,VWS V14.01,2013-01-21 04:30:00,
2013-01-20 22:33:00,17.3,12.2,30.33,West,276,12.0,15.0,80,0.00,,---,0.00,VWS V14.01,2013-01-21 04:33:00,
2013-01-20 22:38:00,17.4,12.3,30.33,West,280,9.0,15.0,80,0.00,,---,0.00,VWS V14.01,2013-01-21 04:38:00,
2013-01-20 22:43:00,17.5,12.7,30.33,West,262,11.0,15.0,81,0.00,,---,0.00,VWS V14.01,2013-01-21 04:43:00,
2013-01-20 22:48:00,17.3,11.9,30.33,West,277,14.0,17.0,79,0.00,,---,0.00,VWS V14.01,2013-01-21 04:48:00,
2013-01-20 22:53:00,17.1,11.4,30.33,West,275,13.0,18.0,78,0.00,,---,0.00,VWS V14.01,2013-01-21 04:53:00,
2013-01-20 22:58:00,16.8,11.1,30.33,West,277,16.0,19.0,78,0.00,,---,0.00,VWS V14.01,2013-01-21 04:58:00,
2013-01-20 23:00:00,16.0,10.4,30.32,West,269,12.0,21.0,78,0.00,,---,0.00,VWS V14.01,2013-01-21 05:00:00,
2013-01-20 23:01:00,16.6,10.7,30.34,West,281,13.0,16.0,77,0.00,,---,0.00,VWS V14.01,2013-01-21 05:01:00,
2013-01-20 23:03:00,16.4,10.5,30.33,West,275,10.0,16.0,77,0.00,,---,0.00,VWS V14.01,2013-01-21 05:03:00,
2013-01-20 23:04:00,16.4,10.8,30.33,West,273,12.0,16.0,78,0.00,,---,0.00,VWS V14.01,2013-01-21 05:04:00,
2013-01-20 23:09:00,16.1,10.5,30.33,West,279,12.0,16.0,78,0.00,,---,0.00,VWS V14.01,2013-01-21 05:09:00,
2013-01-20 23:14:00,16.0,10.6,30.33,West,272,9.0,16.0,79,0.00,,---,0.00,VWS V14.01,2013-01-21 05:14:00,
2013-01-20 23:19:00,16.1,11.0,30.33,WNW,284,9.0,16.0,80,0.00,,---,0.00,VWS V14.01,2013-01-21 05:19:00,
2013-01-20 23:24:00,16.1,11.0,30.33,West,279,10.0,16.0,80,0.00,,---,0.00,VWS V14.01,2013-01-21 05:24:00,
2013-01-20 23:29:00,16.3,11.2,30.33,West,275,8.0,9.0,80,0.00,,---,0.00,VWS V14.01,2013-01-21 05:29:00,
2013-01-20 23:30:00,15.6,10.0,30.31,West,259,23.0,23.0,78,0.00,,---,0.00,VWS V14.01,2013-01-21 05:30:00,
2013-01-20 23:34:00,16.5,11.7,30.33,West,278,9.0,10.0,81,0.00,,---,0.00,VWS V14.01,2013-01-21 05:34:00,
2013-01-20 23:40:00,16.6,11.2,30.33,WSW,258,18.0,18.0,79,0.00,,---,0.00,VWS V14.01,2013-01-21 05:40:00,
2013-01-20 23:45:00,16.3,10.9,30.32,WSW,258,17.0,21.0,79,0.00,,---,0.00,VWS V14.01,2013-01-21 05:45:00,
2013-01-20 23:50:00,16.2,10.8,30.32,West,269,16.0,21.0,79,0.00,,---,0.00,VWS V14.01,2013-01-21 05:50:00,
2013-01-20 23:55:00,16.0,10.4,30.32,West,281,14.0,21.0,78,0.00,,---,0.00,VWS V14.01,2013-01-21 05:55:00,